Location: Eastchurch
(51.4000°N, 0.8667°E)
Time: 05:52:28
(UTC+00:00)

CZ-4 R/B - Pass Details

Date: 19 January 2026
Orbit: 546 x 553 km, 97.6° (Epoch: 18 February)

Event Time Altitude Azimuth Distance (km) Brightness Sun altitude
Rises 17:44:52 0° 160° (SSE) 2,719 7.8 -12.3°
Reaches altitude 10° 17:46:59 10° 158° (SSE) 1,830 6.9 -12.6°
Maximum altitude 17:50:56 74° 74° (ENE) 583 4.2 -13.2°
Drops below altitude 10° 17:54:55 10° 350° (N) 1,848 7.0 -13.8°
Sets 17:57:04 0° 348° (NNW) 2,748 7.9 -14.1°
